Regional Weather Roundup
Issued by NWS

Home | Current Version | Previous Version | Graphics & Text | Print | Product List | Glossary Off
Versions: 1 2 3 4 5 6 7 8 9 10 11 12 13 14 15 16 17 18 19 20 21 22 23 24 25 26 27 28 29 30 31 32 33 34 35 36 37 38 39 40 41 42 43 44 45 46 47 48 49 50

000
ASUS43 KTOP 301908
RWRKS

WEATHER ROUNDUP FOR KANSAS
NATIONAL WEATHER SERVICE GOODLAND KS
200 PM CDT SUN AUG 30 2015

NOTE:  "FAIR" INDICATES FEW OR NO CLOUDS BELOW 12,000 FEET WITH NO
SIGNIFICANT WEATHER AND/OR OBSTRUCTIONS TO VISIBILITY.

KSZ001>006-013>018-027>032-041>047-302000-
NORTHWEST KANSAS

CITY           SKY/WX    TMP DP  RH WIND       PRES   REMARKS
GOODLAND       SUNNY     91  42  18 S21       30.04F HAZE
HAYS           SUNNY     84  57  39 S13       30.02F
HILL CITY      SUNNY     93  48  21 S15       30.00F
RUSSELL        SUNNY     83  59  44 SE9       30.02F
$$

KSZ061>065-074>080-084>089-302000-
SOUTHWEST KANSAS

CITY           SKY/WX    TMP DP  RH WIND       PRES   REMARKS
DODGE CITY     SUNNY     86  50  28 S7        30.06F
ELKHART          N/A     88  58  36 S9          N/A
GARDEN CITY    SUNNY     89  41  18 SE8       30.05F
GREAT BEND     SUNNY     81  61  50 E7        30.03F
LIBERAL        SUNNY     88  46  23 SE5       30.07F
PRATT          SUNNY     79  59  50 CALM      30.06F
$$

KSZ066>073-081>083-090>101-302000-
SOUTHEAST KANSAS

CITY           SKY/WX    TMP DP  RH WIND       PRES   REMARKS
CHANUTE        PTSUNNY   81  70  69 NE7       30.02F
COFFEYVILLE    PTSUNNY   82  70  66 CALM      30.00F
HUTCHINSON     SUNNY     80  64  58 S9        30.04F
MEDICINE LODGE   N/A     81  62  52 CALM      30.02F
NEWTON         PTSUNNY   79  63  57 E5        30.07S
PARSONS        CLOUDY    82  71  69 CALM      30.02S
WICHITA INTL   PTSUNNY   82  65  56 CALM      30.02F
WICHITA JABRA  CLOUDY    78  66  66 NE6       30.03F
WICHITA MCCONL SUNNY     78  55  44 E9        30.03F
$$

KSZ007>012-019>026-033>040-048>060-102>105-302000-
NORTHEAST KANSAS

CITY           SKY/WX    TMP DP  RH WIND       PRES   REMARKS
CONCORDIA      MOSUNNY   73  64  73 S12       30.05F
EMPORIA        MOSUNNY   79  69  71 E8        30.03F
LAWRENCE       MOSUNNY   83  69  62 VRB3      30.02F
MANHATTAN      PTSUNNY   78  67  68 VRB3      30.03F
MARYSVILLE     CLOUDY   N/A N/A N/A CALM      30.06S
OLATHE IND     MOSUNNY   81  70  69 E8        30.03F
OLATHE EXE     PTSUNNY   80  70  71 VRB7      30.02F
SALINA         SUNNY     77  63  61 SE5       30.04F
TOPEKA BILLARD CLOUDY    77  69  76 CALM      30.04S
TOPEKA FORBES  CLOUDY    78  68  71 E3        30.04F
$$



USA.gov is the U.S. government's official web portal to all federal, state and local government web resources and services.